Home   Weather   Leuven   Past weeks

Flag for Belgium Past Weather in Leuven, Belgium — Yesterday and Last 2 Weeks

Now
48 °F

Scattered showers. Scattered clouds.


Feels Like: 46 °F
Forecast: 34 / 52 °F
Wind: 5 mph from South

Location: Brussels National Airport

Current Time: Apr 26, 2017 at 6:03:24 pm

Latest Report: Apr 26, 2017 at 5:20 pm


Visibility: N/A

Pressure: 29.95 "Hg

Humidity: 62%

Dew Point: 36 °F

Location of LeuvenLocation

Past Weather in Leuven — Graph

°F

Leuven Temperature Yesterday

Maximum temperature yesterday: 52 °F (at 12:20 am)
Minimum temperature yesterday: 37 °F (at 12:20 pm)
Average temperature yesterday: 44 °F

High & Low Weather Summary for the Past Weeks

 TemperatureHumidityPressure
High59 °F (Apr 12, 3:20 pm)94% (Apr 15, 8:20 am)30.66 "Hg (Apr 15, 8:20 am)
Low27 °F (Apr 20, 5:50 am)30% (Apr 20, 6:20 pm)29.77 "Hg (Apr 24, 11:50 pm)
Average46 °F69%30.18 "Hg
* Reported Apr 11 4:20 pm — Apr 26 4:50 pm, Leuven, Weather by CustomWeather, © 2017

Note: Actual official high and low records may vary slightly from our data, if they occured in-between our weather recording intervals... More about our weather records

Advertising

Leuven Weather History for the Previous 24 Hours

Scroll right to see more
 ConditionsComfort  
Time TempWeatherWind HumidityBarometerVisibility
4:50 pm
Wed, Apr 26
46 °FScattered showers. Passing clouds.3 mph71%29.95 "HgN/A
4:20 pm45 °FScattered showers. Passing clouds.1 mph76%29.95 "HgN/A
3:50 pm41 °FSprinkles. Partly sunny.6 mph81%29.95 "Hg4 mi
3:20 pm41 °FRain showers. Scattered clouds.12 mph81%29.95 "Hg4 mi
2:50 pm48 °FScattered showers. Scattered clouds.8 mph58%29.92 "HgN/A
2:20 pm46 °FScattered showers. Passing clouds.10 mph66%29.92 "HgN/A
1:50 pm43 °FSprinkles. Scattered clouds.14 mph71%29.95 "HgN/A
1:20 pm48 °FScattered showers. Partly sunny.6 mph50%29.92 "HgN/A
12:50 pm46 °FScattered showers. Partly sunny.2 mph57%29.92 "HgN/A
12:20 pm45 °FScattered showers. Partly sunny.8 mph57%29.92 "HgN/A
11:50 am46 °FScattered showers. Partly sunny.3 mph62%29.92 "HgN/A
11:20 am45 °FPartly sunny.7 mph61%29.92 "HgN/A
10:50 am46 °FScattered clouds.3 mph62%29.92 "HgN/A
10:20 am45 °FScattered clouds.6 mph66%29.92 "HgN/A
9:50 am45 °FScattered clouds.8 mph66%29.92 "HgN/A
9:20 am43 °FScattered clouds.6 mph71%29.92 "HgN/A
8:50 am41 °FScattered clouds.6 mph76%29.89 "HgN/A
8:20 am39 °FScattered clouds.7 mph81%29.89 "HgN/A
7:50 am39 °FPartly sunny.5 mph81%29.89 "HgN/A
7:20 am37 °FScattered showers. Partly sunny.6 mph87%29.89 "HgN/A
6:50 am36 °FScattered showers. Passing clouds.6 mph93%29.86 "HgN/A
6:20 am36 °FScattered showers. Passing clouds.6 mph93%29.86 "HgN/A
5:50 am37 °FPassing clouds.5 mph87%29.86 "HgN/A
5:20 am37 °FSprinkles. Partly cloudy.8 mph81%29.86 "HgN/A
4:50 am36 °FPartly cloudy.6 mph87%29.86 "HgN/A
4:20 am36 °FPartly cloudy.6 mph81%29.86 "HgN/A
3:50 am34 °FPassing clouds.6 mph87%29.86 "HgN/A
3:20 am34 °FPassing clouds.7 mph87%29.86 "HgN/A
2:50 am36 °FPassing clouds.7 mph81%29.86 "HgN/A
2:20 am36 °FClear.6 mph75%29.86 "Hg10 mi
1:50 am34 °FClear.6 mph81%29.86 "Hg10 mi
1:20 am36 °FPassing clouds.6 mph70%29.86 "HgN/A
12:50 am34 °FPassing clouds.6 mph81%29.86 "HgN/A
12:20 am36 °FPassing clouds.5 mph75%29.86 "HgN/A
11:50 pm
Tue, Apr 25
37 °FPassing clouds.5 mph65%29.86 "HgN/A
11:20 pm39 °FPassing clouds.3 mph61%29.86 "HgN/A
10:50 pm39 °FPassing clouds.5 mph61%29.86 "HgN/A
10:20 pm39 °FPassing clouds.6 mph61%29.89 "HgN/A
9:50 pm41 °FPassing clouds.6 mph57%29.86 "HgN/A
8:50 pm43 °FSunny.8 mph49%29.86 "Hg10 mi
8:20 pm45 °FPassing clouds.10 mph42%29.86 "HgN/A
7:50 pm45 °FSunny.10 mph42%29.86 "Hg10 mi
7:20 pm46 °FPassing clouds.10 mph46%29.86 "HgN/A
6:50 pm46 °FPassing clouds.13 mph50%29.86 "HgN/A
6:20 pm46 °FScattered clouds.13 mph50%29.86 "HgN/A
Weather by CustomWeather, © 2017

See weather overviewHow to use our weather pages